Home   Weather   Nassau   Past weeks
Flag for Bahamas

Past Weather in Nassau, Bahamas — Yesterday and Last 2 Weeks

Now
77 °F

Passing clouds.


Feels Like: 79 °F
Forecast: 83 / 77 °F
Wind: 9 mph from East

Location: Nassau Airport

Current Time: May 23, 2019 at 7:05:17 am

Latest Report: May 23, 2019 at 6:00 am


Visibility: N/A

Pressure: 30.07 "Hg

Humidity: 79%

Dew Point: 70 °F

Location of NassauLocation

Past Weather in Nassau — Graph

°F

Nassau Temperature Yesterday

Maximum temperature yesterday: 82 °F (at 11:00 am)
Minimum temperature yesterday: 73 °F (at 7:00 am)
Average temperature yesterday: 79 °F

High & Low Weather Summary for the Past Weeks

 TemperatureHumidityPressure
High90 °F (May 14, 2:00 pm)94% (May 8, 6:00 am)30.13 "Hg (May 8, 6:00 am)
Low70 °F (May 19, 8:00 am)45% (May 13, 2:00 am)29.92 "Hg (May 13, 3:00 pm)
Average79 °F76%30.00 "Hg
* Reported May 8 6:00 am — May 23 6:00 am, Nassau. Weather by CustomWeather, © 2019

Note: Actual official high and low records may vary slightly from our data, if they occured in-between our weather recording intervals... More about our weather records

Advertising

Nassau Weather History for the Previous 24 Hours

Scroll right to see more
 ConditionsComfort  
Time TempWeatherWind HumidityBarometerVisibility
6:00 am
Thu, May 23
77 °FPassing clouds.9 mph79%30.07 "HgN/A
5:00 am77 °FPassing clouds.9 mph74%30.07 "HgN/A
4:00 am77 °FPassing clouds.8 mph74%30.07 "HgN/A
3:00 am77 °FPassing clouds.9 mph74%30.08 "HgN/A
2:00 am79 °FPassing clouds.10 mph70%30.10 "HgN/A
1:00 am79 °FPassing clouds.13 mph70%30.11 "HgN/A
12:00 am79 °FPassing clouds.13 mph70%30.13 "HgN/A
11:00 pm
Wed, May 22
79 °FPassing clouds.12 mph70%30.12 "HgN/A
10:00 pm79 °FPassing clouds.14 mph70%30.11 "HgN/A
9:00 pm79 °FPassing clouds.13 mph70%30.09 "HgN/A
8:00 pm81 °FPassing clouds.13 mph66%30.07 "HgN/A
7:00 pm81 °FScattered clouds.14 mph70%30.05 "HgN/A
6:00 pm82 °FPartly sunny.15 mph66%30.07 "HgN/A
5:00 pm82 °FScattered clouds.13 mph66%30.05 "HgN/A
4:00 pm81 °FScattered clouds.10 mph66%30.05 "HgN/A
3:00 pm81 °FScattered clouds.9 mph66%30.06 "HgN/A
2:00 pm82 °FPartly sunny.12 mph62%30.07 "HgN/A
1:00 pm82 °FScattered clouds.14 mph62%30.07 "HgN/A
12:00 pm82 °FBroken clouds.12 mph58%30.08 "HgN/A
11:00 am82 °FPassing clouds.10 mph55%30.07 "HgN/A
10:00 am81 °FScattered clouds.10 mph62%30.05 "HgN/A
9:00 am81 °FScattered clouds.7 mph66%30.04 "HgN/A
8:00 am79 °FPassing clouds.5 mph70%30.03 "HgN/A
7:00 am73 °FPassing clouds.5 mph83%30.01 "HgN/A
Weather by CustomWeather, © 2019

See weather overview